[[{"header":{"parameterUnit":"m.s-1","parameterCategory":1,"la1":30.2991,"la2":30.254,"lo1":-89.0895,"lo2":-89.0444,"dy":0.0017,"dx":0.0017,"nx":28,"ny":28,"refTime":"2026-02-10T03:00:00:Z","depth":0,"parameterNumber":2,"parameterNumberName":"U-component_of_WINDS"},"data":[0,0,0,0,0,0,0,0,0,0,0,0,0,0,0,0,0,0,0,0,0,0,0,0,0,0,0,0,0,0,0,0,0,0,0,0,0,0,0,0,0,0,0,0,0,0,0,0,0,0,0,0,0,0,0,0,0,0,1.9287,1.9287,0,1.9309,1.931,1.931,1.9252,1.9251,1.9249,1.9247,1.9272,1.9275,1.9277,0,0,0,0,0,0,0,0,0,0,0,0,0,1.9198,1.9199,1.9287,1.9287,1.9288,1.9309,1.931,1.931,1.9253,1.9251,1.9248,1.9246,1.9272,1.9274,1.9277,0,0,0,0,0,0,0,0,0,0,0,0,0,1.923,1.92,1.9287,1.9262,1.926,1.9309,1.931,1.931,1.9253,1.9251,1.9248,1.9245,1.9271,1.9274,1.9278,1.9354,0,0,1.9288,1.929,0,0,0,0,0,0,0,0,1.9228,1.9233,1.9265,1.9263,1.9261,1.9275,1.9287,1.9325,1.9254,1.9256,1.9247,1.9244,1.9276,1.9279,1.9289,1.9355,1.9356,1.9289,1.9291,1.9292,1.9293,0,0,0,0,0,0,0,1.9226,1.9232,1.9296,1.9266,1.9263,1.925,1.9252,1.9294,1.9281,1.9255,1.9251,1.9255,1.9274,1.9286,1.9289,1.9356,1.9289,1.9292,1.9294,1.9295,1.9487,1.949,0,0,0,0,0,0,1.9227,1.923,1.9295,1.9297,1.9238,1.9254,1.9256,1.9274,1.928,1.9278,1.9257,1.9252,1.9281,1.9285,1.929,1.938,1.9292,1.9296,1.9298,1.9484,1.9488,1.9491,0,0,0,0,0,0,1.9225,1.9233,1.9294,1.9262,1.9269,1.9258,1.9279,1.9275,1.9287,1.9281,1.9279,1.9271,1.9279,1.9285,1.9338,1.938,1.9297,1.93,1.9481,1.9486,1.949,1.956,0,0,0,0,0,0,1.9223,1.9233,1.9261,1.9263,1.9271,1.9342,1.9281,1.9278,1.9293,1.9286,1.9294,1.9292,1.9277,1.9333,1.9342,1.9383,1.9303,1.9477,1.9483,1.9488,1.9554,1.9567,1.9577,0,0,0,0,0,1.922,1.928,1.9262,1.927,1.9306,1.9344,1.9349,1.9329,1.9296,1.9325,1.9322,1.9292,1.9374,1.9339,1.9348,1.9392,1.9474,1.9481,1.9488,1.9549,1.9564,1.9577,0,0,0,0,0,0,1.9282,1.928,1.926,1.9323,1.9334,1.9334,1.937,1.9346,1.9367,1.9361,1.9337,1.9339,1.9397,1.94,1.9361,1.9466,1.9419,1.9428,1.9462,1.9477,1.9488,1.9486,1.9306,0,0,0,0,0,1.9303,1.9334,1.933,1.9386,1.9393,1.9381,1.9397,1.9381,1.9392,1.9397,1.9397,1.941,1.9438,1.9458,1.9484,1.9555,1.9556,1.9589,1.9601,1.961,1.9618,1.9657,1.9672,1.9513,1.9513,1.9513,0,0,1.9347,1.935,1.9371,1.9399,1.9406,1.9439,1.9385,1.9422,1.9447,1.9402,1.9453,1.9454,1.9467,1.953,1.9557,1.9534,1.9662,1.9619,1.9626,1.9629,1.9665,1.968,1.9694,1.9518,1.9517,1.9516,0,0,1.9444,1.9449,1.9496,1.9505,1.9516,1.9507,1.9519,1.9523,1.9522,1.9572,1.954,1.957,1.962,1.963,1.9642,1.9745,1.9719,1.9755,1.9815,1.9853,1.9866,1.9877,1.9914,1.9928,1.9763,1.9763,1.9763,0,1.9498,1.9546,1.9524,1.9564,1.9578,1.9539,1.9588,1.9597,1.9616,1.9627,1.96,1.9663,1.9668,1.9734,1.9759,1.977,1.9783,1.9753,1.9865,1.9876,1.9886,1.9922,1.9936,1.9767,1.9767,1.9766,1.9766,0,1.9611,1.9645,1.9682,1.9702,1.972,1.9764,1.975,1.9772,1.9755,1.975,1.9803,1.9809,1.9836,1.985,1.9834,1.9914,1.9899,1.9869,1.9821,1.9906,1.9939,1.9952,1.9773,1.9772,1.977,1.9769,0,0,1.9747,1.9755,1.9769,1.9778,1.9788,1.9815,1.9858,1.9884,1.9903,1.9918,1.9955,1.9998,1.9971,1.9985,1.997,2.0004,2.0086,1.997,1.997,1.9992,2.0176,2.0198,2.0214,2.007,2.0072,2.0074,2.0175,0,1.9843,1.9916,1.9899,1.9971,2.0003,1.9968,2.0006,2.0017,2.0014,2.0042,2.0038,2.007,2.0031,2.004,2.0071,2.007,2.0123,2.0062,2.0104,2.0106,2.0102,2.0231,2.0254,2.0349,2.0188,2.019,2.0191,0,1.9964,1.9984,2.006,2.0067,2.008,2.0114,2.0137,2.0163,2.0176,2.0171,2.0188,2.0167,2.0211,2.0163,2.0224,2.0183,2.0199,2.0201,2.0204,2.0207,2.0153,2.0238,2.0379,2.0393,2.0211,2.021,2.0208,0,2.0057,2.0103,2.0154,2.0163,2.0172,2.0197,2.0202,2.0211,2.0229,2.0249,2.0261,2.0287,2.0301,2.0322,2.0309,2.0275,2.0373,2.0324,2.0371,2.0372,2.0393,2.0392,2.0539,2.0404,2.0404,2.0404,2.0403,0,2.0166,2.0214,2.0196,2.0228,2.0281,2.0261,2.0315,2.0316,2.0325,2.0357,2.0329,2.036,2.0341,2.0371,2.0362,2.0414,2.0421,2.0419,2.0416,2.0422,2.0422,2.0432,2.0425,2.0407,2.0407,2.0406,2.0405,0,2.0277,2.0267,2.0321,2.0325,2.0327,2.0367,2.037,2.0401,2.0396,2.0437,2.0446,2.0439,2.0473,2.0463,2.05,2.0493,2.056,2.0549,2.0556,2.0553,2.0601,2.0597,2.0759,2.078,2.0632,2.0634,2.0635,0,2.0347,2.0383,2.0392,2.0411,2.0418,2.0449,2.0467,2.045,2.0469,2.0487,2.0516,2.0547,2.0571,2.0628,2.0627,2.0655,2.0644,2.0699,2.0648,2.0653,2.0645,2.0643,2.0647,2.0709,2.0711,2.0712,2.0713,0,2.0473,2.0466,2.0492,2.0517,2.0539,2.0558,2.0575,2.0592,2.0576,2.06,2.0634,2.0653,2.0691,2.0723,2.0749,2.0755,2.0733,2.073,2.0742,2.0748,2.0751,2.075,2.0583,2.0726,2.0725,2.0724,2.0723,2.0722,2.0565,2.0596,2.0607,2.0638,2.0649,2.0665,2.0694,2.0693,2.0721,2.075,2.0739,2.0779,2.0792,2.0825,2.0834,2.0866,2.0845,2.0863,2.0868,2.0872,2.0879,2.0746,2.0871,2.087,2.087,2.087,2.0869,0,2.069,2.0695,2.0724,2.0748,2.0772,2.0748,2.0766,2.0788,2.0823,2.0837,2.0862,2.0902,2.0933,2.0935,2.0965,2.099,2.098,2.0998,2.0996,2.0998,2.0896,2.0882,2.1006,2.1006,2.1006,2.1006,2.1006,2.1006,2.0757,2.0808,2.0804,2.0861,2.0866,2.0904,2.0916,2.0932,2.0943,2.0989,2.1015,2.1016,2.1026,2.1056,2.1084,2.1084,2.1096,2.1119,2.1115,2.1019,2.1005,2.0992,2.0979,2.1122,2.1122,2.1215,2.1215,2.1216]},{"header":{"parameterUnit":"m.s-1","parameterCategory":1,"la1":30.2991,"la2":30.254,"lo1":-89.0895,"lo2":-89.0444,"dy":0.0017,"dx":0.0017,"nx":28,"ny":28,"refTime":"2026-02-10T03:00:00:Z","depth":0,"parameterNumber":3,"parameterNumberName":"V-component_of_WINDS"},"data":[0,0,0,0,0,0,0,0,0,0,0,0,0,0,0,0,0,0,0,0,0,0,0,0,0,0,0,0,0,0,0,0,0,0,0,0,0,0,0,0,0,0,0,0,0,0,0,0,0,0,0,0,0,0,0,0,0,0,1.7101,1.7102,0,1.7204,1.7205,1.7206,1.7184,1.7182,1.718,1.7178,1.7283,1.7288,1.7292,0,0,0,0,0,0,0,0,0,0,0,0,0,1.688,1.6884,1.71,1.7102,1.7103,1.7203,1.7205,1.7206,1.7184,1.7182,1.7179,1.7177,1.7282,1.7287,1.7293,0,0,0,0,0,0,0,0,0,0,0,0,0,1.6979,1.6885,1.71,1.7104,1.7105,1.7203,1.7205,1.7207,1.7185,1.7182,1.7179,1.7176,1.728,1.7287,1.7293,1.7394,0,0,1.7314,1.7317,0,0,0,0,0,0,0,0,1.6973,1.6987,1.7102,1.7104,1.7106,1.7178,1.7165,1.7269,1.7185,1.7155,1.7178,1.7175,1.725,1.726,1.7285,1.7398,1.7403,1.7315,1.7319,1.7322,1.7324,0,0,0,0,0,0,0,1.6966,1.6982,1.7141,1.7104,1.7106,1.7099,1.711,1.7185,1.7217,1.7157,1.7156,1.7168,1.7251,1.7279,1.7288,1.7405,1.7315,1.7321,1.7325,1.7328,1.7598,1.7601,0,0,0,0,0,0,1.6958,1.6977,1.7138,1.7144,1.7031,1.7105,1.7117,1.7158,1.7217,1.7223,1.717,1.7167,1.7268,1.728,1.7291,1.7408,1.7322,1.7329,1.7333,1.7595,1.7599,1.7602,0,0,0,0,0,0,1.6954,1.6973,1.7134,1.706,1.708,1.7112,1.7157,1.7161,1.7189,1.7227,1.7232,1.7193,1.7266,1.7281,1.7367,1.7412,1.7332,1.7338,1.7591,1.7596,1.76,1.7645,0,0,0,0,0,0,1.6947,1.6971,1.7011,1.7061,1.7084,1.721,1.716,1.7165,1.7201,1.7197,1.725,1.7255,1.7265,1.7357,1.7374,1.742,1.7343,1.7587,1.7593,1.7599,1.764,1.7651,1.766,0,0,0,0,0,1.694,1.7022,1.7014,1.7033,1.7135,1.7212,1.7225,1.7235,1.7205,1.7244,1.7267,1.7254,1.7404,1.7366,1.7385,1.7433,1.7585,1.7592,1.7598,1.7636,1.7649,1.766,0,0,0,0,0,0,1.6978,1.7028,1.702,1.7121,1.7162,1.7208,1.7259,1.725,1.7301,1.7295,1.7305,1.7317,1.7402,1.7427,1.7383,1.753,1.749,1.7501,1.7511,1.7524,1.7534,1.7526,1.7349,0,0,0,0,0,1.6998,1.7057,1.7098,1.7183,1.7203,1.7227,1.7261,1.7265,1.7308,1.7326,1.7355,1.7397,1.7453,1.749,1.7544,1.7643,1.7652,1.7685,1.7695,1.7703,1.7713,1.7761,1.7775,1.7624,1.7624,1.7624,0,0,1.7041,1.7075,1.7113,1.7191,1.7223,1.7282,1.7242,1.7308,1.7351,1.7336,1.7417,1.744,1.7486,1.7577,1.7619,1.76,1.7756,1.7712,1.7718,1.7723,1.777,1.7784,1.7796,1.7629,1.7628,1.7627,0,0,1.7148,1.7181,1.7253,1.7285,1.7333,1.7348,1.7364,1.7411,1.7425,1.7506,1.7494,1.7544,1.7642,1.7674,1.7703,1.7815,1.7803,1.7832,1.7885,1.7932,1.7944,1.7954,1.7991,1.8004,1.7841,1.7841,1.7841,0,1.7195,1.7284,1.7291,1.7356,1.7389,1.7375,1.7445,1.7476,1.754,1.7562,1.754,1.7657,1.7689,1.7784,1.7811,1.7836,1.7853,1.7827,1.7942,1.7952,1.7962,1.7997,1.8011,1.7844,1.7844,1.7843,1.7843,0,1.7337,1.7398,1.745,1.751,1.7548,1.7616,1.7631,1.7669,1.7667,1.7682,1.7762,1.7798,1.7856,1.7879,1.788,1.7974,1.7959,1.7939,1.7899,1.7979,1.8012,1.8026,1.7848,1.7847,1.7846,1.7846,0,0,1.7476,1.7533,1.7552,1.7576,1.7625,1.7672,1.7737,1.7793,1.7823,1.7866,1.7918,1.7998,1.7977,1.801,1.8013,1.8055,1.8135,1.8029,1.803,1.8045,1.8236,1.825,1.8265,1.8127,1.813,1.8132,1.8231,0,1.7585,1.7699,1.7704,1.7807,1.7861,1.7845,1.7901,1.7936,1.7951,1.7997,1.8013,1.8068,1.8039,1.8058,1.8098,1.8117,1.8174,1.811,1.8174,1.8176,1.8162,1.8283,1.8299,1.8391,1.8244,1.8246,1.8248,0,1.7729,1.7773,1.7881,1.7917,1.794,1.799,1.8038,1.8084,1.8121,1.8128,1.8161,1.8157,1.8219,1.8176,1.8261,1.8217,1.8243,1.8255,1.8259,1.8265,1.8217,1.829,1.8421,1.8434,1.8269,1.8267,1.8265,0,1.7815,1.7902,1.7976,1.7997,1.8042,1.8076,1.8096,1.8131,1.8162,1.8203,1.8223,1.8272,1.8298,1.8335,1.8342,1.831,1.8425,1.8384,1.843,1.843,1.8456,1.8454,1.8591,1.8475,1.8475,1.8474,1.8474,0,1.7936,1.8002,1.8014,1.806,1.8131,1.8134,1.8205,1.8222,1.8251,1.8298,1.8288,1.8331,1.8339,1.8383,1.8389,1.8455,1.8468,1.8474,1.8475,1.8474,1.8473,1.8491,1.8484,1.8478,1.8477,1.8477,1.8476,0,1.8045,1.8056,1.8135,1.8169,1.8178,1.8229,1.8257,1.8299,1.831,1.8369,1.8383,1.8401,1.8452,1.8462,1.8524,1.8527,1.8606,1.8601,1.8593,1.8592,1.8637,1.8632,1.8789,1.8808,1.8682,1.8683,1.8684,0,1.8121,1.8171,1.8208,1.8238,1.8258,1.8308,1.8338,1.8341,1.8373,1.8415,1.8451,1.85,1.854,1.8622,1.864,1.8685,1.868,1.8732,1.8687,1.8683,1.8677,1.8674,1.8677,1.8741,1.8742,1.8743,1.8744,0,1.8254,1.8255,1.8299,1.8343,1.8379,1.8415,1.8448,1.8473,1.848,1.8516,1.8567,1.8597,1.8657,1.8706,1.875,1.8768,1.8756,1.8757,1.877,1.877,1.8762,1.8764,1.8614,1.8754,1.8753,1.8752,1.8752,1.8751,1.8347,1.8388,1.8419,1.8466,1.8491,1.8521,1.856,1.8574,1.8617,1.8666,1.8664,1.8719,1.8749,1.8807,1.8828,1.8869,1.8853,1.8872,1.8877,1.8881,1.8884,1.8756,1.8878,1.8877,1.8877,1.8877,1.8877,0,1.8476,1.8494,1.8537,1.8583,1.8619,1.8603,1.8637,1.8668,1.8716,1.8745,1.8783,1.8839,1.8884,1.8903,1.8946,1.8976,1.8971,1.8987,1.8984,1.8988,1.8898,1.8881,1.8989,1.8989,1.8989,1.8989,1.8989,1.8989,1.8548,1.8615,1.8619,1.8696,1.8713,1.8765,1.8786,1.8812,1.8834,1.8897,1.8933,1.8945,1.8968,1.9012,1.9051,1.9055,1.9071,1.9089,1.909,1.9006,1.8995,1.8984,1.8968,1.9093,1.9093,1.9176,1.9177,1.9178]}]]